Weather Roundup
Issued by NWS

Home | Current Version | Previous Version | Text Only | Print | Product List | Glossary On
Versions: 1 2 3 4 5 6 7 8 9 10 11 12 13 14 15 16 17 18 19 20 21 22 23 24 25 26 27 28 29 30 31 32 33 34 35 36 37 38 39 40 41 42 43 44 45 46 47 48 49 50
318
NZUS93 KARX 071459
HRRWXR

CURRENT HOURLY OBSERVATIONS ACROSS
MUCH OF THE UPPER MISSISSIPPI VALLEY
NATIONAL WEATHER SERVICE LA CROSSE WI
900 AM CST SUN FEB 07 2016


...SOUTHEAST MINNESOTA...


CITY           SKY/WX    TMP DP  RH WIND       PRES   REMARKS
ROCHESTER      SUNNY     33  25  72 W20       29.68S WCI  21
ROCHESTER/MAYO FAIR      35  27  74 W14G23    29.67S WCI  25
WINONA         CLOUDY    36  28  75 W6        29.67F WCI  31
AUSTIN         SUNNY     36  27  69 W14G20    29.72R WCI  27
ALBERT LEA     SUNNY     34  25  69 W10G18    29.72R WCI  26
DODGE CENTER   SUNNY     36  25  64 W15G21    29.67S WCI  26
PRESTON        MOSUNNY   32  25  74 SW8       29.70S WCI  25
OWATONNA       SUNNY     36  25  64 W20       29.69S WCI  25
FARIBAULT        N/A     37  27  65 W17G23    29.68S WCI  28
$$

...ELSEWHERE IN MINNESOTA...


CITY           SKY/WX    TMP DP  RH WIND       PRES   REMARKS
MINNEAPOLIS    PTSUNNY   37  26  64 W16G25    29.63S WCI  28
INTNL FALLS    CLOUDY    34  32  92 W6        29.38R FOG     WCI  29
DULUTH         LGT SNOW  33  31  92 W13       29.43S FOG     WCI  24
RED WING       SUNNY     39  27  60 W13G21    29.63S WCI  32
REDWOOD FALLS  SUNNY     37  26  64 W25G32    29.71S WCI  25
MANKATO        SUNNY     37  25  60 W21G32    29.71R WCI  27
WORTHINGTON    CLOUDY    34  25  69 W20       29.80F WCI  22
FAIRMONT       SUNNY     36  23  60 W22       29.75S WCI  24
$$

...SOUTHWEST WISCONSIN...


CITY           SKY/WX    TMP DP  RH WIND       PRES   REMARKS
LA CROSSE      PTSUNNY   35  27  72 SW10      29.69S WCI  27
PRAIRIE DU CHI SUNNY     35  26  71 CALM      29.75S
BOSCOBEL       SUNNY     37  30  75 SW13G18   29.73F WCI  29
LONE ROCK      SUNNY     36  28  73 SW9       29.72F WCI  29
PLATTEVILLE    SUNNY     33  29  86 SW8       29.75S WCI  26
FORT MC COY    SUNNY     35  29  78 SW6       29.68S WCI  30
VIROQUA        FAIR      33  28  83 W15       29.68F WCI  23
WIS DELLS      SUNNY     35  28  76 SW9       29.69S WCI  28
$$

...ELSEWHERE IN WISCONSIN...


CITY           SKY/WX    TMP DP  RH WIND       PRES   REMARKS
MILWAUKEE      CLOUDY    39  29  67 SW16G22   29.74S WCI  30
MADISON        MOSUNNY   36  29  75 SW10G20   29.71F WCI  28
GREEN BAY      CLOUDY    36  30  79 S12       29.65F WCI  28
EAU CLAIRE     CLOUDY    35  27  72 W12       29.60S WCI  27
BLACK RVR FLS  FAIR      34  27  76 S6        29.65S WCI  29
MEDFORD        CLOUDY    29  28  94 SW12      29.56F WCI  20
WAUSAU         PTSUNNY   32  27  81 SW5       29.58F WCI  27
WIS RAPIDS     SUNNY     33  27  78 SW12      29.64F WCI  24
MARSHFIELD     CLOUDY    33  26  75 SW12      29.59F WCI  24
RICE LAKE      CLOUDY    35  30  83 SW8       29.57F WCI  28
$$

...NORTHEAST IOWA...


CITY           SKY/WX    TMP DP  RH WIND       PRES   REMARKS
WATERLOO       SUNNY     34  25  69 W13       29.79S WCI  25
DUBUQUE        SUNNY     33  28  81 W14       29.76S WCI  23
DECORAH        SUNNY     32  28  86 W9        29.72S WCI  24
MASON CITY     SUNNY     32  25  75 W17       29.77S WCI  21
CHARLES CITY   SUNNY     32  28  86 W13       29.76S WCI  22
OELWEIN        SUNNY     30  27  86 W12       29.77S WCI  21
$$

...ELSEWHERE IN IOWA...


CITY           SKY/WX    TMP DP  RH WIND       PRES   REMARKS
DES MOINES     MOSUNNY   39  26  59 NW17      29.89R WCI  30
IOWA CITY      CLOUDY    36  29  75 W9        29.85R WCI  29
FORT DODGE     MOSUNNY   36  25  64 W9        29.86R WCI  29
MARSHALLTOWN   SUNNY     35  26  69 W15       29.82S WCI  25
CEDAR RAPIDS   SUNNY     36  31  82 W12       29.80S WCI  28
$$

...NORTHERN ILLINOIS...


CITY           SKY/WX    TMP DP  RH WIND       PRES   REMARKS
CHICAGO-OHARE  CLOUDY    39  29  67 SW17      29.81F WCI  30
CHICAGO-MIDWAY CLOUDY    41  28  60 SW15      29.83F
MOLINE         CLOUDY    39  28  64 SW18G26   29.81F WCI  30
ROCKFORD       CLOUDY    39  29  67 SW9G20    29.79F WCI  33
PEORIA         MOSUNNY   41  29  62 SW12      29.87F
$$

NOTE: "FAIR" INDICATES FEW OR NO CLOUDS BELOW 12,000 FEET WITH NO
SIGNIFICANT WEATHER AND/OR OBSTRUCTIONS TO VISIBILITY. WIND
SPEEDS ARE IN MILES-PER-HOUR.




USA.gov is the U.S. government's official web portal to all federal, state and local government web resources and services.